Location: Boiro
(42.6475°N, 8.8834°W)
Time: 01:02:52
(UTC+01:00)

A-11 Canister half - All Passes

Search period start: 30 November 2021 00:00
Search period end: 10 December 2021 00:00
Orbit: 1516 x 1684 km, 47.2° (Epoch: 29 November)

Date Brightness Start Highest point End Pass type
(mag) Time Alt. Az. Time Alt. Az. Time Alt. Az.
30 Nov - 07:41:53 10° S 07:49:38 28° SE 07:57:33 10° ENE visible
30 Nov - 09:43:47 10° SW 09:53:30 76° SSE 10:03:34 10° ENE daylight
30 Nov - 11:48:59 10° W 11:58:55 70° N 12:09:06 10° ENE daylight
30 Nov - 13:54:41 10° WNW 14:04:50 79° NNE 14:15:03 10° ESE daylight
30 Nov - 16:00:00 10° WNW 16:09:45 54° SW 16:19:28 10° SE daylight
30 Nov - 18:07:41 10° W 18:13:04 16° WSW 18:18:25 10° SSW daylight
01 Dec - 07:19:20 10° S 07:26:48 26° SE 07:34:27 10° ENE visible
01 Dec - 09:20:55 10° SW 09:30:34 73° SSE 09:40:36 10° ENE daylight
01 Dec - 11:26:01 10° W 11:35:55 71° N 11:46:06 10° ENE daylight
01 Dec - 13:31:43 10° WNW 13:41:51 77° NNE 13:52:04 10° ESE daylight
01 Dec - 15:37:01 10° WNW 15:46:50 57° SW 15:56:38 10° SE daylight
01 Dec - 17:44:19 10° W 17:50:15 17° WSW 17:56:09 10° SSW daylight
02 Dec - 06:56:49 10° S 07:03:58 24° SE 07:11:18 10° E visible
02 Dec - 08:58:03 10° SW 09:07:39 70° SSE 09:17:37 10° ENE daylight
02 Dec - 11:03:02 10° W 11:12:56 71° N 11:23:05 10° ENE daylight
02 Dec - 13:08:46 10° WNW 13:18:51 76° NNE 13:29:04 10° E daylight
02 Dec - 15:14:03 10° WNW 15:23:55 60° SW 15:33:48 10° SE daylight
02 Dec - 17:21:02 10° W 17:27:25 19° SW 17:33:48 10° SSW daylight
03 Dec - 06:34:19 10° S 06:41:10 22° SE 06:48:09 10° E visible
03 Dec - 08:35:13 10° SW 08:44:44 67° SE 08:54:38 10° ENE daylight
03 Dec - 10:40:05 10° W 10:49:56 72° N 11:00:05 10° ENE daylight
03 Dec - 12:45:49 10° WNW 12:55:52 75° NNE 13:06:05 10° E daylight
03 Dec - 14:51:05 10° WNW 15:01:00 63° SW 15:10:57 10° SE daylight
03 Dec - 16:57:47 10° W 17:04:35 21° SW 17:11:23 10° S daylight
04 Dec - 06:11:53 10° S 06:18:21 21° SE 06:24:57 10° E visible
04 Dec - 08:12:23 10° SW 08:21:50 64° SE 08:31:39 10° ENE visible
04 Dec - 10:17:07 10° W 10:26:56 73° NNW 10:37:06 10° ENE daylight
04 Dec - 12:22:51 10° WNW 12:32:52 73° NNE 12:43:04 10° E daylight
04 Dec - 14:28:07 10° WNW 14:38:05 66° SW 14:48:05 10° SE daylight
04 Dec - 16:34:36 10° W 16:41:45 22° SW 16:48:56 10° S daylight
05 Dec - 05:49:29 10° SSE 05:55:33 19° SE 06:01:43 10° E visible
05 Dec - 07:49:34 10° SW 07:58:56 61° SE 08:08:40 10° ENE visible
05 Dec - 09:54:09 10° W 10:03:57 75° NNW 10:14:05 10° ENE daylight
05 Dec - 11:59:54 10° WNW 12:09:52 72° N 12:20:04 10° E daylight
05 Dec - 14:05:10 10° WNW 14:15:09 69° SSW 14:25:12 10° SE daylight
05 Dec - 16:11:26 10° W 16:18:55 24° SW 16:26:24 10° S daylight
06 Dec - 05:27:09 10° SSE 05:32:45 17° SE 05:38:25 10° E visible
06 Dec - 07:26:45 10° SW 07:36:02 58° SE 07:45:41 10° ENE visible
06 Dec - 09:31:13 10° WSW 09:40:59 76° NNW 09:51:06 10° ENE daylight
06 Dec - 11:36:55 10° WNW 11:46:53 71° N 11:57:03 10° E daylight
06 Dec - 13:42:13 10° WNW 13:52:13 71° SSW 14:02:19 10° SE daylight
06 Dec - 15:48:19 10° WNW 15:56:04 26° SW 16:03:51 10° S daylight
07 Dec - 05:04:54 10° SSE 05:09:57 16° ESE 05:15:04 10° E visible
07 Dec - 07:03:58 10° SW 07:13:09 55° SE 07:22:42 10° ENE visible
07 Dec - 09:08:16 10° WSW 09:18:00 78° NNW 09:28:07 10° ENE daylight
07 Dec - 11:13:58 10° WNW 11:23:52 70° N 11:34:01 10° E daylight
07 Dec - 13:19:16 10° WNW 13:29:16 74° SSW 13:39:24 10° SE daylight
07 Dec - 15:25:12 10° WNW 15:33:14 28° SW 15:41:17 10° S daylight
08 Dec - 04:42:46 10° SSE 04:47:09 14° ESE 04:51:36 10° E visible
08 Dec - 06:41:12 10° SSW 06:50:16 52° SE 06:59:42 10° ENE visible
08 Dec - 08:45:19 10° WSW 08:55:01 79° NNW 09:05:07 10° ENE daylight
08 Dec - 10:51:01 10° WNW 11:00:52 70° N 11:11:01 10° E daylight
08 Dec - 12:56:20 10° WNW 13:06:20 77° SSW 13:16:29 10° SE daylight
08 Dec - 15:02:08 10° WNW 15:10:22 30° SW 15:18:39 10° S daylight
09 Dec - 04:20:47 10° SE 04:24:22 13° ESE 04:28:00 10° E visible
09 Dec - 06:18:26 10° SSW 06:27:24 50° SE 06:36:42 10° ENE visible
09 Dec - 08:22:23 10° WSW 08:32:03 81° NNW 08:42:07 10° ENE visible
09 Dec - 10:28:03 10° WNW 10:37:52 69° N 10:47:59 10° E daylight
09 Dec - 12:33:23 10° WNW 12:43:23 80° SSW 12:53:33 10° SE daylight
09 Dec - 14:39:04 10° WNW 14:47:30 32° SW 14:56:00 10° S daylight
